Location: Unspecified
(48.2082°N, 0.0000°E)
Time: 14:12:48
(UTC+00:00)

Vanguard 1 - Pass Details

Date: 25 June 2019
Orbit: 653 x 3830 km, 34.3° (Epoch: 17 July)

Event Time Altitude Azimuth Distance (km) Brightness Sun altitude
Rises 21:43:36 0° 173° (S) 7,927 - -11.9°
Reaches altitude 10° 21:57:43 10° 142° (SE) 6,781 - -13.1°
Maximum altitude 22:00:55 11° 133° (SE) 6,623 - -13.4°
Exits shadow 22:01:52 10° 131° (SE) 6,587 13.7 -13.5°
Drops below altitude 10° 22:04:01 10° 125° (SE) 6,526 13.7 -13.6°
Sets 22:15:35 0° 93° (E) 6,760 14.1 -14.5°
